Location: Caltech
(34.1382°N, 118.1253°W)
Time: 21:39:53
(UTC-08:00)

Cosmos 1606 - Visible Passes

Search period start: 22 November 2014 00:00
Search period end: 02 December 2014 00:00
Orbit: 519 x 544 km, 82.5° (Epoch: 22 November)

Date Brightness Start Highest point End Pass type
(mag) Time Alt. Az. Time Alt. Az. Time Alt. Az.
22 Nov 5.9 03:52:11 10° NE 03:54:08 13° ENE 03:56:05 10° ESE visible
22 Nov 3.5 05:27:23 14° NNW 05:30:15 32° W 05:33:45 10° SSW visible
22 Nov 3.1 17:39:27 10° SSW 17:43:21 68° W 17:47:20 10° N visible
23 Nov 5.9 03:43:25 12° ENE 03:44:08 12° ENE 03:45:51 10° E visible
23 Nov 3.4 05:18:51 25° NW 05:20:17 34° W 05:23:50 10° SSW visible
23 Nov 3.0 17:29:27 10° SSW 17:33:23 73° W 17:37:22 10° N visible
24 Nov 6.0 03:34:53 11° E 03:34:53 11° E 03:35:34 10° E visible
24 Nov 3.3 05:10:19 36° W 05:10:19 36° W 05:13:54 10° SSW visible
24 Nov 3.0 17:19:27 10° S 17:23:23 79° W 17:27:23 10° N visible
25 Nov 3.9 05:01:43 28° SW 05:01:43 28° SW 05:03:58 10° SSW visible
25 Nov 2.9 17:09:26 10° S 17:13:23 84° W 17:17:23 10° N visible
26 Nov 4.8 04:53:04 16° SSW 04:53:04 16° SSW 04:54:00 10° SSW visible
